Location: Csohesd
(46.2500°N, 22.6167°E)
Time: 16:00:50
(UTC+00:00)

SL-19 R/B - Pass Details

Date: 03 June 2022
Orbit: 874 x 1208 km, 100.6° (Epoch: 03 July)

Event Time Altitude Azimuth Distance (km) Brightness Sun altitude
Rises 20:12:39 0° 6° (N) 4,033 8.6 -14.8°
Reaches altitude 10° 20:16:41 10° 343° (NNW) 3,114 8.4 -15.2°
Maximum altitude 20:20:01 14° 315° (NW) 2,840 8.1 -15.5°
Drops below altitude 10° 20:23:23 10° 287° (WNW) 3,152 7.8 -15.8°
Sets 20:27:32 0° 265° (W) 4,118 8.1 -16.2°
